GW0206 Weather Reports


time (UTC)temp
F
wind
direction
speed
knots
gust
knots
rain 1hr
in
rain 24hr
in
rain mn
in
humidity
%
barometer
mb
20260906060033 61 218 0.9 4.3 0.00 0.00 0.00 88 1015.9
20260906055515 61 222 1.7 4.3 0.00 0.00 0.00 87 1015.9
20260906055008 61 202 1.7 4.3 0.00 0.00 0.00 87 1015.9
20260906054516 61 215 1.7 4.3 0.00 0.00 0.00 87 1016.0
20260906054011 61 213 1.7 4.3 0.00 0.00 0.00 86 1016.0
20260906053511 61 211 1.7 4.3 0.00 0.00 0.00 86 1016.0
20260906053027 61 216 1.7 4.3 0.00 0.00 0.00 85 1016.0
20260906052518 62 214 1.7 4.3 0.00 0.00 0.00 85 1016.0
20260906052011 62 182 1.7 4.3 0.00 0.00 0.00 85 1016.0
20260906051529 62 204 1.7 4.3 0.00 0.00 0.00 84 1016.0
20260906051013 62 222 1.7 3.5 0.00 0.00 0.00 84 1015.9
20260906050515 62 208 0.0 3.5 0.00 0.00 0.00 84 1016.0
20260906050032 62 227 0.0 3.5 0.00 0.00 0.00 83 1015.9
20260906045509 62 215 1.7 5.2 0.00 0.00 0.00 83 1015.8
20260906045015 62 221 0.9 5.2 0.00 0.00 0.00 83 1015.9
20260906044534 63 227 1.7 4.3 0.00 0.00 0.00 83 1015.8
20260906044018 63 195 1.7 3.5 0.00 0.00 0.00 82 1015.9
20260906043515 63 213 1.7 3.5 0.00 0.00 0.00 82 1015.9
20260906043023 63 216 0.9 3.5 0.00 0.00 0.00 82 1015.9
20260906042512 63 227 1.7 5.2 0.00 0.00 0.00 81 1015.9
20260906042014 63 212 2.6 5.2 0.00 0.00 0.00 81 1015.9
20260906041527 63 260 0.9 4.3 0.00 0.00 0.00 81 1015.9
20260906041018 63 215 1.7 5.2 0.00 0.00 0.00 81 1016.0
20260906040516 63 212 1.7 5.2 0.00 0.00 0.00 81 1015.9
20260906040035 63 234 1.7 5.2 0.00 0.00 0.00 81 1016.0
20260906035517 63 211 0.0 5.2 0.00 0.00 0.00 81 1016.0
20260906035014 63 214 0.9 4.3 0.00 0.00 0.00 81 1015.9
20260906034542 63 217 0.9 4.3 0.00 0.00 0.00 81 1015.9
20260906034011 64 222 0.9 3.5 0.00 0.00 0.00 81 1016.0
20260906033515 64 200 0.9 4.3 0.00 0.00 0.00 80 1016.1
20260906033044 64 231 0.9 4.3 0.00 0.00 0.00 80 1016.1
20260906032511 64 225 0.0 4.3 0.00 0.00 0.00 80 1016.1
20260906032016 64 244 0.9 4.3 0.00 0.00 0.00 80 1016.0
20260906031534 64 229 1.7 4.3 0.00 0.00 0.00 79 1016.0
20260906031014 64 246 0.9 3.5 0.00 0.00 0.00 79 1016.1
20260906030516 64 214 0.0 5.2 0.00 0.00 0.00 79 1016.2
20260906030028 64 243 0.9 5.2 0.00 0.00 0.00 78 1016.1
20260906025515 65 225 1.7 4.3 0.00 0.00 0.00 78 1016.1
20260906025014 65 221 0.9 4.3 0.00 0.00 0.00 78 1016.1
20260906024537 65 209 1.7 4.3 0.00 0.00 0.00 78 1016.1
20260906024018 65 207 1.7 4.3 0.00 0.00 0.00 77 1016.0
20260906023520 65 207 1.7 4.3 0.00 0.00 0.00 77 1015.9
20260906023026 65 225 1.7 4.3 0.00 0.00 0.00 77 1016.1
20260906022515 66 215 1.7 5.2 0.00 0.00 0.00 76 1015.9
20260906022016 66 214 1.7 7.0 0.00 0.00 0.00 76 1015.8
20260906021547 66 224 1.7 7.0 0.00 0.00 0.00 75 1015.8
20260906021017 66 227 1.7 6.1 0.00 0.00 0.00 75 1015.8
20260906020515 66 222 1.7 7.0 0.00 0.00 0.00 75 1015.8
20260906020003 67 206 2.6 7.0 0.00 0.00 0.00 74 1015.7
20260906015503 67 236 0.9 4.3 0.00 0.00 0.00 74 1015.8
20260906015003 67 213 1.7 6.1 0.00 0.00 0.00 74 1015.7
20260906014507 67 229 2.6 7.8 0.00 0.00 0.00 74 1015.6
20260906014008 67 219 1.7 7.8 0.00 0.00 0.00 74 1015.6
20260906013504 67 219 0.9 4.3 0.00 0.00 0.00 73 1015.6
20260906013010 67 246 1.7 5.2 0.00 0.00 0.00 74 1015.5
20260906012503 68 250 1.7 5.2 0.00 0.00 0.00 73 1015.6
20260906012003 68 221 0.9 5.2 0.00 0.00 0.00 73 1015.6
20260906011506 68 211 0.9 5.2 0.00 0.00 0.00 72 1015.5
20260906011005 68 263 1.7 6.1 0.00 0.00 0.00 72 1015.5
20260906010508 68 228 2.6 6.1 0.00 0.00 0.00 71 1015.5
20260906010003 69 233 1.7 7.0 0.00 0.00 0.00 71 1015.6
20260906005504 69 242 1.7 7.0 0.00 0.00 0.00 71 1015.6
20260906005003 69 209 2.6 9.6 0.00 0.00 0.00 71 1015.5
20260906004502 69 182 3.5 9.6 0.00 0.00 0.00 71 1015.5
20260906004005 70 265 4.3 7.8 0.00 0.00 0.00 72 1015.5
20260906003503 70 235 3.5 7.8 0.00 0.00 0.00 73 1015.4
20260906003008 70 232 1.7 9.6 0.00 0.00 0.00 72 1015.3
20260906002502 71 221 4.3 9.6 0.00 0.00 0.00 72 1015.3
20260906002003 71 202 3.5 8.7 0.00 0.00 0.00 73 1015.2
20260906001509 72 213 3.5 8.7 0.00 0.00 0.00 73 1015.0
20260906001007 72 178 3.5 9.6 0.00 0.00 0.00 74 1014.9
20260906000503 72 211 2.6 9.6 0.00 0.00 0.00 74 1015.0
20260906000012 72 225 4.3 9.6 0.00 0.00 0.00 74 1014.9
20260905235512 73 239 3.5 9.6 0.00 0.00 0.00 75 1014.9
20260905235010 73 198 1.7 7.8 0.00 0.00 0.00 78 1014.7
20260905234507 73 276 3.5 7.8 0.00 0.00 0.00 79 1014.7
20260905234008 74 210 0.9 5.2 0.00 0.00 0.00 79 1014.7
20260905233510 74 213 0.9 8.7 0.00 0.00 0.00 78 1014.7
20260905233012 74 191 1.7 8.7 0.00 0.00 0.00 78 1014.7
20260905232505 74 225 3.5 8.7 0.00 0.00 0.00 79 1014.6
20260905232003 74 223 2.6 5.2 0.00 0.00 0.00 80 1014.5
20260905231508 75 231 1.7 7.0 0.00 0.00 0.00 80 1014.4
20260905231006 75 232 1.7 7.0 0.00 0.00 0.00 80 1014.3
20260905230507 75 267 1.7 4.3 0.00 0.00 0.00 80 1014.2
20260905230014 75 198 0.9 4.3 0.00 0.00 0.00 80 1014.3
20260905225508 75 225 2.6 4.3 0.00 0.00 0.00 79 1014.2
20260905225003 75 214 1.7 6.1 0.00 0.00 0.00 78 1014.2
20260905224521 75 238 2.6 7.0 0.00 0.00 0.00 78 1014.2
20260905224012 76 248 1.7 7.8 0.00 0.00 0.00 79 1014.1
20260905223504 76 222 3.5 7.8 0.00 0.00 0.00 79 1014.1
20260905223015 76 210 2.6 7.8 0.00 0.00 0.00 79 1014.0
20260905222513 76 211 2.6 7.0 0.00 0.00 0.00 78 1014.0
20260905222014 76 207 1.7 7.0 0.00 0.00 0.00 78 1014.0
20260905221508 76 196 1.7 7.0 0.00 0.00 0.00 79 1014.0
20260905221003 77 203 2.6 7.8 0.00 0.00 0.00 77 1014.0
20260905220504 77 182 2.6 7.8 0.00 0.00 0.00 76 1013.9
20260905220013 77 194 0.9 5.2 0.00 0.00 0.00 79 1013.9
20260905215507 77 215 1.7 7.0 0.00 0.00 0.00 78 1013.8
20260905215008 77 165 0.9 7.0 0.00 0.00 0.00 78 1013.8
20260905214517 77 246 1.7 7.0 0.00 0.00 0.00 78 1013.8
20260905214004 77 223 2.6 6.1 0.00 0.00 0.00 77 1013.8
20260905213512 77 175 1.7 7.8 0.00 0.00 0.00 77 1013.7
20260905213028 78 175 2.6 11.3 0.00 0.00 0.00 76 1013.8
20260905212512 78 270 3.5 11.3 0.00 0.00 0.00 77 1013.8
20260905212007 78 239 4.3 8.7 0.00 0.00 0.00 76 1013.6
20260905211530 78 243 2.6 8.7 0.00 0.00 0.00 76 1013.6
20260905211016 78 219 2.6 7.8 0.00 0.00 0.00 78 1013.7
20260905210517 77 229 3.5 7.8 0.00 0.00 0.00 79 1013.8
20260905210017 77 217 1.7 7.8 0.00 0.00 0.00 81 1013.8
20260905205503 76 260 2.6 8.7 0.00 0.00 0.00 80 1013.7
20260905205004 76 232 3.5 8.7 0.00 0.00 0.00 80 1013.7
20260905204511 76 212 1.7 7.0 0.00 0.00 0.00 81 1013.8
20260905204005 77 263 2.6 7.0 0.00 0.00 0.00 80 1013.9
20260905203508 77 217 2.6 7.0 0.00 0.00 0.00 79 1013.9
20260905203021 78 248 2.6 9.6 0.00 0.00 0.00 78 1013.9
20260905202508 78 198 3.5 9.6 0.00 0.00 0.00 78 1013.9
20260905202012 78 224 1.7 5.2 0.00 0.00 0.00 82 1013.9
20260905201527 77 210 1.7 6.1 0.00 0.00 0.00 81 1013.9
20260905201005 77 142 2.6 6.1 0.00 0.00 0.00 82 1014.0
20260905200509 76 220 0.9 3.5 0.00 0.00 0.00 85 1014.0
20260905200033 76 162 0.9 3.5 0.00 0.00 0.00 84 1014.2
20260905195515 76 215 0.0 2.6 0.00 0.00 0.00 83 1014.1
20260905195007 76 230 0.9 3.5 0.00 0.00 0.00 83 1014.2
20260905194526 76 202 0.0 3.5 0.00 0.00 0.00 83 1014.3
20260905194007 76 204 0.0 5.2 0.00 0.00 0.00 82 1014.2
20260905193504 76 279 1.7 7.0 0.00 0.00 0.00 82 1014.2
20260905193019 76 242 3.5 7.0 0.00 0.00 0.00 81 1014.2
20260905192510 77 231 3.5 7.0 0.00 0.00 0.00 81 1014.2
20260905192009 77 211 2.6 7.8 0.00 0.00 0.00 79 1014.2
20260905191518 78 217 3.5 7.8 0.00 0.00 0.00 81 1014.3
20260905191010 78 201 0.9 3.5 0.00 0.00 0.00 81 1014.4
20260905190514 78 194 0.9 5.2 0.00 0.00 0.00 82 1014.4
20260905190032 78 211 2.6 5.2 0.00 0.00 0.00 83 1014.3
20260905185507 77 201 0.9 3.5 0.00 0.00 0.00 84 1014.4
20260905185010 77 138 0.9 3.5 0.00 0.00 0.00 83 1014.4
20260905184531 77 219 1.7 3.5 0.00 0.00 0.00 82 1014.5
20260905184016 77 211 1.7 4.3 0.00 0.00 0.00 81 1014.5
20260905183514 77 239 1.7 4.3 0.00 0.00 0.00 82 1014.6
20260905183033 78 215 1.7 4.3 0.00 0.00 0.00 81 1014.6
20260905182519 78 222 0.9 5.2 0.00 0.00 0.00 81 1014.7
20260905182010 78 232 2.6 5.2 0.00 0.00 0.00 80 1014.7
20260905181524 78 217 1.7 5.2 0.00 0.00 0.00 81 1014.6
20260905181013 78 256 1.7 5.2 0.00 0.00 0.00 80 1014.5
20260905180509 78 211 1.7 5.2 0.00 0.00 0.00 81 1014.6
20260905180024 78 236 0.9 7.8 0.00 0.00 0.00 80 1014.6
20260905175513 77 194 2.6 8.7 0.00 0.00 0.00 80 1014.7
20260905175015 77 227 1.7 8.7 0.00 0.00 0.00 83 1014.7
20260905174530 77 236 4.3 7.8 0.00 0.00 0.00 83 1014.7
20260905174010 76 282 1.7 7.8 0.00 0.00 0.00 85 1014.7
20260905173514 76 223 1.7 7.8 0.00 0.00 0.00 84 1014.8
20260905173033 76 211 0.9 7.8 0.00 0.00 0.00 84 1015.0
20260905172508 77 225 3.5 7.8 0.00 0.00 0.00 84 1015.0
20260905172018 77 244 4.3 7.8 0.00 0.00 0.00 83 1014.9
20260905171536 76 243 0.9 4.3 0.00 0.00 0.00 85 1014.9
20260905171018 76 197 0.0 2.6 0.00 0.00 0.00 91 1014.9
20260905170507 75 202 0.0 2.6 0.00 0.00 0.00 86 1014.9
20260905170009 75 229 0.9 3.5 0.00 0.00 0.00 89 1015.0
20260905165506 75 240 0.9 3.5 0.00 0.00 0.00 87 1015.1
20260905165012 75 221 0.0 2.6 0.00 0.00 0.00 86 1015.1
20260905164511 75 223 0.9 2.6 0.00 0.00 0.00 85 1015.2
20260905164005 75 278 0.9 2.6 0.00 0.00 0.00 85 1015.2
20260905163503 75 211 0.0 0.9 0.00 0.00 0.00 85 1015.2
20260905163009 75 126 0.0 0.9 0.00 0.00 0.00 86 1015.2
20260905162505 75 126 0.0 0.9 0.00 0.00 0.00 86 1015.3
20260905162006 75 126 0.0 2.6 0.00 0.00 0.00 88 1015.3
20260905161512 75 126 0.0 2.6 0.00 0.00 0.00 86 1015.4
20260905161010 75 209 0.0 1.7 0.00 0.00 0.00 86 1015.4
20260905160503 75 209 0.0 1.7 0.00 0.00 0.00 85 1015.4
20260905160025 75 209 0.0 1.7 0.00 0.00 0.00 86 1015.5
20260905155509 75 321 0.0 1.7 0.00 0.00 0.00 86 1015.5
20260905155009 75 302 0.0 2.6 0.00 0.00 0.00 85 1015.5
20260905154508 75 222 0.0 2.6 0.00 0.00 0.00 86 1015.4
20260905154009 75 257 0.0 3.5 0.00 0.00 0.00 85 1015.4
20260905153512 75 246 0.0 3.5 0.00 0.00 0.00 86 1015.3
20260905153005 75 281 0.0 3.5 0.00 0.01 0.00 85 1015.3
20260905152503 75 229 0.0 2.6 0.00 0.01 0.00 86 1015.4
20260905152003 75 186 0.0 2.6 0.00 0.01 0.00 85 1015.4
20260905151512 75 186 0.0 2.6 0.00 0.02 0.00 86 1015.3
20260905151003 75 274 0.0 1.7 0.00 0.03 0.00 86 1015.2
20260905150505 75 274 0.0 4.3 0.00 0.03 0.00 87 1015.2
20260905150017 74 228 0.9 6.1 0.00 0.03 0.00 87 1015.0
20260905145510 74 239 2.6 6.1 0.00 0.03 0.00 88 1015.0
20260905145008 74 288 0.0 2.6 0.00 0.04 0.00 90 1015.0
20260905144523 73 307 0.9 3.5 0.00 0.04 0.00 91 1015.0
20260905144011 72 259 0.9 3.5 0.00 0.05 0.00 93 1015.0
20260905143510 72 259 0.0 2.6 0.00 0.05 0.00 92 1015.0
20260905143031 72 240 1.7 2.6 0.00 0.05 0.00 94 1015.0
20260905142512 71 227 0.0 1.7 0.00 0.06 0.00 94 1015.0
20260905142016 71 219 0.0 1.7 0.00 0.07 0.00 95 1015.0
20260905141516 71 275 0.0 1.7 0.00 0.08 0.00 95 1015.0
20260905141009 70 275 0.0 1.7 0.00 0.08 0.00 96 1014.9
20260905140504 70 275 0.9 2.6 0.00 0.09 0.00 97 1014.9
20260905140011 70 275 0.0 2.6 0.00 0.09 0.00 97 1014.9
20260905135507 70 275 0.9 2.6 0.00 0.09 0.00 98 1014.9
20260905135012 70 275 0.9 2.6 0.00 0.10 0.00 98 1014.9
20260905134519 69 275 0.9 3.5 0.00 0.10 0.00 98 1014.9
20260905134008 69 236 0.9 3.5 0.00 0.11 0.00 98 1015.0
20260905133511 69 299 0.9 2.6 0.00 0.13 0.00 98 1014.9
20260905133027 69 251 0.0 2.6 0.00 0.13 0.00 98 1015.0
20260905132514 69 251 0.0 2.6 0.00 0.13 0.00 98 1015.0
20260905132006 69 251 0.9 2.6 0.00 0.13 0.00 98 1015.1
20260905131535 69 246 0.0 2.6 0.00 0.13 0.00 99 1015.2
20260905131015 69 270 0.0 0.9 0.00 0.13 0.00 99 1015.2
20260905130506 69 270 0.0 1.7 0.00 0.13 0.00 99 1015.2
20260905130022 69 270 0.9 2.6 0.00 0.13 0.00 98 1015.2
20260905125503 69 270 0.9 3.5 0.00 0.13 0.00 98 1015.4
20260905125009 68 237 0.9 3.5 0.00 0.13 0.00 98 1015.3
20260905124520 68 287 1.7 4.3 0.00 0.13 0.00 99 1015.4
20260905124009 68 223 1.7 6.1 0.00 0.13 0.00 98 1015.5
20260905123508 68 257 2.6 6.1 0.00 0.13 0.00 98 1015.5
20260905123025 68 243 1.7 4.3 0.00 0.13 0.00 98 1015.5
20260905122513 68 250 0.9 4.3 0.00 0.13 0.00 98 1015.4
20260905122014 68 252 2.6 4.3 0.00 0.13 0.00 98 1015.3
20260905121526 68 239 1.7 5.2 0.00 0.13 0.00 98 1015.2
20260905121006 68 240 2.6 5.2 0.00 0.13 0.00 98 1015.1
20260905120509 68 257 0.0 5.2 0.00 0.13 0.00 98 1015.0
20260905120030 68 240 1.7 5.2 0.00 0.13 0.00 98 1015.0
20260905115518 68 228 1.7 7.0 0.00 0.13 0.00 98 1015.1
20260905115009 68 238 1.7 7.0 0.00 0.13 0.00 98 1015.0
20260905114530 68 238 1.7 5.2 0.00 0.13 0.00 98 1014.9
20260905114017 68 247 1.7 4.3 0.00 0.13 0.00 98 1014.9
20260905113508 68 253 2.6 5.2 0.00 0.13 0.00 98 1014.7
20260905113020 68 269 1.7 5.2 0.00 0.13 0.00 98 1014.6
20260905112509 68 273 0.9 3.5 0.00 0.13 0.00 98 1014.6
20260905112009 68 261 1.7 3.5 0.00 0.13 0.00 98 1014.4
20260905111518 68 264 1.7 3.5 0.00 0.13 0.00 98 1014.4
20260905111017 68 231 0.0 2.6 0.00 0.13 0.00 98 1014.6
20260905110513 68 231 0.0 2.6 0.00 0.13 0.00 98 1014.6
20260905110008 68 198 0.9 2.6 0.00 0.13 0.00 99 1014.5
20260905105508 68 155 0.0 1.7 0.00 0.13 0.00 99 1014.4
20260905105004 68 155 0.0 1.7 0.00 0.13 0.00 98 1014.4
20260905104512 68 155 0.0 0.9 0.00 0.13 0.00 98 1014.7
20260905104005 68 155 0.0 0.9 0.00 0.13 0.00 98 1014.8
20260905103504 68 155 0.0 1.7 0.00 0.13 0.00 98 1015.0
20260905103009 68 155 0.0 1.7 0.00 0.13 0.00 98 1015.2
20260905102503 68 162 0.0 1.7 0.00 0.13 0.00 98 1015.3
20260905102005 68 159 0.0 1.7 0.00 0.13 0.00 98 1015.4
20260905101506 68 146 0.0 1.7 0.00 0.13 0.00 98 1015.4
20260905101002 68 146 0.0 1.7 0.00 0.13 0.00 98 1015.4
20260905100504 68 150 0.0 3.5 0.00 0.13 0.00 98 1015.4
20260905100007 68 123 0.9 3.5 0.00 0.13 0.00 98 1015.5
20260905095506 68 124 0.9 2.6 0.00 0.13 0.00 98 1015.3
20260905095004 68 113 0.9 2.6 0.00 0.13 0.00 98 1015.2
20260905094508 68 113 0.9 2.6 0.00 0.13 0.00 98 1015.0
20260905094003 68 105 0.0 1.7 0.00 0.13 0.00 98 1014.9
20260905093507 68 105 0.0 2.6 0.00 0.13 0.00 98 1014.7
20260905093014 68 105 0.9 2.6 0.00 0.13 0.00 98 1014.5
20260905092509 68 211 0.0 2.6 0.00 0.13 0.00 98 1014.2
20260905092003 68 211 0.9 2.6 0.00 0.13 0.00 98 1014.1
20260905091514 68 211 0.0 1.7 0.00 0.13 0.00 98 1014.0
20260905091007 68 211 0.0 2.6 0.00 0.13 0.00 98 1014.0
20260905090506 68 211 0.0 4.3 0.00 0.13 0.00 98 1013.9
20260905090010 68 215 0.9 5.2 0.00 0.13 0.00 98 1013.8
20260905085509 68 227 2.6 5.2 0.00 0.13 0.00 98 1013.8
20260905085008 68 207 0.0 0.0 0.00 0.13 0.00 98 1014.1
20260905084504 68 207 0.0 0.0 0.00 0.13 0.00 98 1014.0
20260905084003 68 207 0.0 0.0 0.00 0.13 0.00 98 1014.0
20260905083504 68 207 0.0 0.0 0.00 0.13 0.00 98 1013.8
20260905083012 68 207 0.0 0.0 0.00 0.13 0.00 98 1013.7
20260905082502 68 207 0.0 0.0 0.00 0.13 0.00 98 1013.6
20260905082003 68 207 0.0 0.0 0.00 0.13 0.00 98 1013.4
20260905081516 68 207 0.0 0.0 0.00 0.13 0.00 98 1013.7
20260905081009 68 207 0.0 0.0 0.00 0.13 0.00 98 1013.8
20260905080503 68 207 0.0 0.0 0.00 0.13 0.00 98 1013.9
20260905080020 68 207 0.0 0.0 0.00 0.13 0.00 98 1014.0
20260905075508 68 207 0.0 0.0 0.00 0.13 0.00 97 1014.0
20260905075003 68 207 0.0 1.7 0.00 0.13 0.00 97 1014.1
20260905074517 68 207 0.0 1.7 0.00 0.13 0.00 97 1014.2
20260905074007 68 207 0.9 1.7 0.00 0.13 0.00 98 1014.0
20260905073513 68 207 0.0 1.7 0.00 0.13 0.00 97 1014.0
20260905073012 68 207 0.0 1.7 0.00 0.13 0.00 97 1014.0
20260905072504 68 207 0.9 1.7 0.00 0.13 0.00 97 1014.1
20260905072005 68 207 0.0 0.9 0.00 0.13 0.00 97 1014.3
20260905071514 69 207 0.0 0.9 0.00 0.13 0.00 97 1014.2
20260905071007 69 207 0.0 1.7 0.00 0.13 0.00 97 1014.2
20260905070504 69 207 0.0 2.6 0.00 0.13 0.00 98 1014.3
20260905070028 69 207 0.0 2.6 0.00 0.13 0.00 98 1014.3
20260905065503 69 198 0.9 1.7 0.00 0.13 0.00 97 1014.3
20260905065005 69 159 0.0 1.7 0.00 0.13 0.00 97 1014.4
20260905064525 69 101 0.0 3.5 0.00 0.13 0.00 97 1014.5
20260905064009 69 101 0.0 3.5 0.00 0.13 0.00 97 1014.7
20260905063507 69 119 1.7 2.6 0.00 0.13 0.00 98 1014.9
20260905063023 69 312 0.9 2.6 0.00 0.13 0.00 97 1014.6
20260905062511 69 312 0.0 2.6 0.00 0.13 0.00 98 1014.2
20260905062011 69 29 0.0 1.7 0.00 0.13 0.00 97 1014.4
20260905061518 69 29 0.0 0.9 0.00 0.13 0.00 97 1014.7
20260905061013 69 29 0.0 0.9 0.00 0.13 0.00 97 1014.8
20260905060507 69 29 0.0 0.0 0.00 0.13 0.00 97 1014.8